GFSNGP_925_temp_117.txt.gz
Temp
10 10 9 9 11 12 13 12 11 11 10 10 8 6 5 4 3 2 2 1 0 -0 -1 -1 -1 -2 -2 -3 -3 -3 -3 -3 -3 -3 -4 -4 -4 -4 -4 -4 -4 -4 -4 -3
9 11 12 11 13 13 13 13 12 11 9 8 6 5 4 3 2 2 1 0 -0 -1 -1 -1 -2 -3 -3 -3 -3 -4 -4 -4 -4 -4 -5 -5 -4 -5 -4 -5 -5 -5 -5 -4
10 10 10 10 10 13 9 9 9 9 8 6 5 4 3 2 2 -0 -0 -1 -1 -1 -2 -2 -2 -2 -3 -3 -4 -4 -4 -5 -5 -5 -5 -5 -5 -5 -6 -6 -6 -6 -6 -5
8 8 10 9 9 10 8 7 7 6 6 5 3 1 0 -0 0 -1 -2 -1 -1 -2 -2 -3 -3 -3 -3 -3 -4 -4 -4 -5 -5 -6 -6 -6 -6 -6 -6 -7 -7 -7 -6 -6
7 8 9 9 8 7 8 6 5 5 3 2 1 0 -0 0 -1 -2 -4 -3 -3 -3 -4 -4 -3 -3 -3 -3 -3 -4 -5 -5 -6 -6 -7 -7 -7 -7 -7 -7 -7 -7 -7 -6
7 7 7 6 8 8 7 5 3 3 2 1 0 -1 -0 -1 -2 -4 -3 -3 -4 -4 -4 -4 -4 -4 -4 -4 -4 -4 -5 -5 -6 -6 -7 -7 -7 -7 -7 -7 -7 -7 -7 -6
7 7 6 7 8 8 5 5 2 2 1 1 -0 -3 -1 -2 -3 -2 -3 -4 -4 -5 -5 -5 -5 -4 -4 -4 -5 -5 -5 -5 -5 -6 -7 -7 -7 -7 -7 -7 -7 -7 -7 -7
8 6 6 5 7 6 2 0 -0 -3 -2 1 -2 -2 -3 -2 -3 -3 -4 -5 -5 -6 -6 -6 -5 -5 -5 -5 -5 -5 -5 -5 -6 -6 -7 -7 -7 -7 -8 -7 -7 -7 -7 -7
6 5 3 2 1 0 1 -0 -2 -3 -2 -2 -2 -3 -3 -5 -6 -5 -5 -5 -5 -6 -6 -6 -6 -6 -6 -5 -5 -5 -5 -5 -5 -6 -6 -7 -8 -8 -8 -7 -7 -7 -8 -8
4 3 2 1 1 1 0 -1 -3 -3 -3 -3 -4 -4 -6 -6 -7 -7 -6 -6 -6 -7 -7 -7 -7 -6 -6 -5 -5 -5 -5 -6 -6 -6 -6 -7 -8 -8 -8 -8 -8 -7 -8 -9
3 3 2 2 1 -0 -1 -1 -2 -2 -3 -5 -5 -6 -6 -7 -8 -8 -7 -7 -7 -7 -8 -8 -7 -7 -6 -6 -5 -6 -6 -6 -6 -7 -7 -7 -8 -8 -8 -8 -8 -8 -9 -10
4 3 3 2 -0 0 -1 -1 -2 -3 -4 -4 -5 -5 -6 -7 -7 -8 -8 -8 -8 -9 -9 -9 -7 -7 -6 -6 -6 -6 -7 -7 -7 -8 -8 -8 -8 -9 -9 -9 -9 -9 -9 -9
3 3 1 0 0 1 -1 -2 -3 -3 -3 -4 -5 -5 -6 -7 -8 -8 -9 -9 -10 -10 -9 -8 -7 -7 -7 -7 -6 -7 -8 -8 -8 -8 -9 -9 -9 -10 -10 -10 -10 -10 -10 -10
1 1 0 -0 -0 0 -2 -2 -2 -3 -4 -4 -5 -5 -6 -6 -7 -8 -9 -10 -10 -9 -9 -8 -8 -8 -7 -7 -7 -7 -8 -8 -9 -9 -9 -9 -10 -10 -10 -11 -11 -11 -11 -11
1 2 1 0 1 0 -1 -2 -3 -3 -3 -4 -4 -5 -6 -6 -7 -9 -9 -9 -10 -9 -9 -8 -8 -8 -8 -8 -8 -8 -9 -9 -9 -10 -10 -10 -10 -10 -11 -11 -11 -12 -12 -11
1 1 0 0 0 -1 -1 -2 -3 -3 -3 -4 -4 -5 -6 -7 -8 -9 -9 -10 -10 -10 -10 -9 -9 -9 -9 -8 -9 -9 -10 -10 -10 -10 -10 -11 -11 -11 -11 -11 -12 -12 -12 -12
-0 -0 -0 -0 -0 -1 -2 -2 -2 -2 -3 -4 -5 -7 -8 -9 -9 -10 -10 -10 -10 -10 -10 -9 -9 -9 -9 -9 -9 -10 -10 -10 -10 -11 -11 -11 -11 -11 -12 -12 -12 -12 -12 -12
1 1 0 0 -0 -1 -1 -1 -2 -3 -4 -5 -7 -8 -9 -9 -11 -10 -10 -10 -10 -10 -10 -10 -10 -9 -9 -10 -10 -10 -10 -11 -11 -11 -11 -12 -12 -12 -12 -12 -13 -13 -13 -12
0 -1 -1 -1 -1 -1 -1 -2 -3 -4 -6 -7 -7 -9 -9 -9 -9 -10 -10 -10 -9 -10 -10 -10 -10 -10 -10 -10 -10 -11 -11 -11 -11 -12 -12 -13 -13 -13 -14 -14 -14 -14 -14 -13
-1 -1 -1 -1 -1 -2 -3 -5 -6 -7 -7 -7 -8 -9 -10 -10 -10 -10 -10 -10 -10 -10 -10 -10 -10 -10 -11 -11 -11 -11 -12 -12 -13 -13 -14 -14 -14 -15 -15 -16 -16 -16 -17 -17
-3 -3 -3 -3 -4 -4 -5 -6 -6 -8 -8 -7 -8 -10 -10 -10 -9 -10 -11 -10 -10 -10 -10 -10 -10 -11 -11 -11 -12 -12 -13 -13 -14 -15 -15 -16 -16 -16 -17 -17 -17 -18 -18 -18
-4 -4 -4 -5 -5 -6 -6 -7 -7 -8 -8 -8 -9 -9 -9 -10 -9 -9 -9 -9 -10 -10 -10 -11 -11 -11 -12 -12 -13 -13 -14 -15 -15 -16 -16 -17 -17 -18 -19 -19 -19 -19 -19 -20
-5 -5 -5 -6 -6 -7 -7 -7 -8 -8 -8 -8 -8 -9 -9 -9 -9 -9 -10 -9 -9 -10 -11 -11 -12 -12 -12 -13 -14 -15 -15 -16 -16 -17 -18 -18 -19 -20 -20 -20 -21 -21 -21 -21
-6 -6 -7 -7 -8 -8 -8 -9 -8 -8 -8 -8 -8 -8 -8 -9 -9 -9 -8 -9 -10 -10 -11 -12 -12 -13 -13 -14 -15 -15 -16 -17 -18 -18 -19 -20 -20 -21 -21 -22 -22 -22 -22 -22
-6 -7 -7 -7 -7 -7 -9 -9 -9 -9 -9 -9 -8 -8 -8 -7 -7 -8 -9 -10 -10 -11 -12 -13 -13 -14 -14 -15 -16 -16 -17 -18 -19 -20 -20 -21 -22 -22 -22 -23 -23 -23 -24 -24
-6 -7 -7 -6 -7 -8 -8 -9 -9 -9 -9 -9 -8 -8 -8 -8 -8 -9 -10 -10 -11 -12 -13 -13 -14 -15 -15 -16 -17 -18 -18 -19 -20 -21 -22 -22 -23 -23 -23 -23 -24 -24 -25 -25
-6 -7 -7 -7 -8 -8 -8 -9 -9 -9 -9 -8 -8 -8 -8 -8 -9 -10 -10 -11 -12 -13 -13 -14 -15 -16 -16 -17 -18 -19 -19 -20 -21 -22 -23 -23 -23 -23 -24 -24 -25 -25 -26 -26

GFSNGP_925_temp_120.txt.gz
Temp
10 10 10 10 10 11 11 11 10 10 10 10 9 7 4 2 2 2 1 0 -0 -0 -1 -1 -2 -3 -3 -4 -4 -4 -4 -5 -5 -5 -5 -5 -5 -5 -6 -6 -6 -6 -5 -4
9 10 10 10 10 9 10 10 9 9 9 10 7 4 3 2 2 1 1 0 -0 -0 -1 -2 -2 -2 -3 -4 -4 -4 -4 -5 -5 -5 -5 -5 -5 -6 -6 -6 -7 -6 -6 -5
9 9 8 10 10 10 10 9 10 10 10 6 4 4 3 2 2 1 0 -0 -1 -1 -2 -2 -2 -3 -3 -4 -4 -5 -5 -5 -6 -6 -6 -6 -6 -6 -6 -7 -7 -7 -7 -6
9 8 9 10 7 9 10 9 7 7 6 5 4 2 1 1 0 -1 -1 -1 -2 -2 -3 -3 -3 -3 -3 -4 -4 -5 -5 -6 -6 -7 -7 -7 -6 -6 -7 -7 -7 -7 -7 -7
8 8 9 8 8 6 7 8 5 5 4 2 1 1 0 1 -1 -3 -4 -2 -3 -4 -4 -4 -4 -3 -3 -4 -4 -5 -6 -6 -6 -7 -7 -7 -7 -7 -7 -8 -7 -8 -7 -7
7 6 6 6 8 8 8 6 4 4 3 1 2 2 -2 -2 -3 -4 -4 -4 -5 -5 -4 -4 -4 -4 -4 -5 -5 -5 -6 -6 -6 -7 -7 -7 -8 -8 -7 -7 -8 -8 -8 -8
7 7 6 6 7 8 6 6 4 3 2 1 -0 -2 -3 -3 -5 -4 -4 -5 -5 -5 -5 -5 -5 -4 -5 -5 -6 -6 -6 -6 -6 -7 -7 -7 -7 -8 -8 -8 -8 -9 -9 -9
7 6 5 6 7 7 3 0 0 0 1 -1 -1 -2 -3 -4 -3 -4 -5 -5 -5 -6 -6 -5 -5 -5 -5 -5 -5 -5 -6 -6 -6 -7 -7 -8 -8 -8 -8 -8 -9 -9 -9 -10
6 4 2 2 2 1 1 -0 -2 -2 -1 -2 -2 -3 -3 -3 -5 -6 -6 -6 -6 -6 -7 -6 -6 -6 -6 -6 -5 -5 -6 -6 -6 -7 -7 -8 -9 -9 -9 -9 -9 -10 -10 -10
4 2 2 2 1 0 0 -1 -3 -2 -2 -2 -3 -5 -7 -7 -7 -8 -6 -6 -6 -6 -7 -7 -7 -6 -6 -6 -6 -6 -6 -7 -7 -7 -8 -9 -9 -9 -9 -9 -9 -10 -11 -11
3 2 2 2 1 -0 -2 -3 -3 -3 -3 -4 -5 -6 -6 -7 -8 -8 -7 -7 -7 -7 -8 -8 -7 -7 -6 -6 -6 -6 -7 -7 -7 -8 -8 -9 -9 -9 -9 -9 -9 -10 -10 -11
5 4 3 2 -0 -1 -2 -3 -3 -4 -4 -4 -5 -6 -7 -8 -8 -8 -8 -8 -8 -8 -8 -8 -7 -7 -6 -6 -6 -7 -8 -8 -9 -9 -9 -10 -10 -10 -10 -10 -10 -10 -10 -10
3 2 1 0 -0 -1 -2 -3 -3 -3 -4 -5 -5 -6 -7 -7 -8 -8 -9 -9 -9 -9 -9 -8 -8 -7 -7 -7 -7 -7 -8 -9 -10 -10 -10 -11 -11 -11 -11 -11 -11 -11 -11 -11
1 1 0 -0 -0 -1 -2 -2 -2 -4 -4 -5 -6 -6 -7 -7 -8 -9 -10 -10 -9 -9 -9 -8 -8 -8 -8 -8 -8 -8 -9 -9 -10 -10 -10 -10 -11 -11 -12 -12 -13 -12 -12 -12
1 1 1 -0 -1 -1 -2 -3 -4 -4 -4 -5 -5 -6 -6 -7 -8 -9 -10 -10 -10 -9 -9 -8 -8 -9 -9 -8 -9 -9 -10 -10 -10 -10 -11 -11 -11 -11 -12 -12 -12 -12 -13 -12
-0 -0 -0 -0 -1 -2 -3 -3 -3 -4 -4 -5 -5 -6 -7 -8 -9 -9 -10 -10 -10 -10 -9 -9 -9 -9 -9 -9 -10 -10 -10 -11 -11 -11 -11 -11 -12 -12 -12 -12 -12 -12 -13 -13
-1 -1 -0 -1 -1 -2 -2 -2 -3 -3 -4 -4 -5 -7 -8 -9 -10 -10 -10 -10 -10 -10 -9 -9 -9 -10 -10 -10 -10 -10 -11 -11 -11 -11 -12 -12 -13 -13 -13 -13 -14 -13 -13 -13
1 0 0 -0 -1 -2 -2 -2 -3 -3 -4 -6 -7 -8 -9 -10 -11 -11 -11 -10 -10 -10 -10 -10 -10 -10 -10 -10 -10 -10 -11 -11 -12 -12 -13 -13 -14 -14 -14 -14 -15 -15 -15 -14
-0 -1 -1 -1 -1 -2 -2 -2 -3 -5 -7 -7 -8 -9 -9 -9 -10 -11 -10 -10 -10 -10 -10 -10 -10 -10 -10 -11 -11 -11 -11 -12 -13 -13 -14 -14 -15 -15 -16 -16 -17 -17 -17 -17
-2 -1 -1 -2 -2 -2 -4 -5 -6 -7 -7 -8 -8 -10 -11 -11 -10 -11 -10 -10 -10 -10 -10 -10 -10 -11 -11 -11 -11 -12 -12 -13 -14 -14 -15 -16 -16 -17 -17 -17 -18 -18 -18 -19
-4 -3 -4 -3 -4 -5 -5 -6 -7 -8 -9 -8 -8 -10 -11 -11 -10 -10 -10 -11 -10 -10 -10 -10 -11 -11 -12 -12 -12 -13 -13 -14 -15 -16 -16 -17 -17 -18 -18 -19 -19 -19 -20 -20
-6 -6 -5 -4 -5 -6 -6 -6 -7 -8 -9 -9 -9 -10 -10 -11 -11 -11 -10 -10 -10 -11 -11 -11 -11 -12 -12 -12 -13 -14 -15 -15 -16 -17 -17 -18 -19 -20 -20 -20 -21 -21 -21 -21
-5 -5 -5 -5 -6 -7 -7 -7 -8 -8 -9 -9 -9 -10 -10 -11 -10 -11 -11 -10 -10 -11 -11 -11 -12 -12 -13 -13 -14 -15 -16 -17 -17 -18 -19 -20 -20 -21 -21 -21 -22 -22 -22 -22
-5 -5 -6 -6 -7 -8 -8 -9 -8 -8 -8 -9 -9 -9 -9 -10 -10 -9 -9 -9 -10 -11 -11 -12 -12 -13 -13 -14 -15 -16 -17 -18 -18 -19 -20 -21 -21 -21 -22 -22 -22 -23 -23 -24
-6 -7 -7 -7 -7 -7 -8 -9 -9 -9 -9 -9 -10 -9 -8 -8 -8 -9 -9 -9 -10 -11 -12 -12 -13 -13 -14 -15 -16 -17 -18 -19 -19 -20 -21 -21 -22 -22 -22 -22 -23 -24 -24 -25
-6 -6 -6 -6 -6 -8 -8 -9 -9 -10 -10 -10 -10 -9 -9 -8 -8 -9 -9 -10 -11 -12 -12 -13 -14 -14 -15 -16 -17 -18 -19 -19 -20 -21 -22 -22 -22 -22 -22 -23 -24 -25 -25 -26
-6 -6 -7 -7 -7 -8 -8 -8 -9 -9 -9 -9 -10 -9 -8 -8 -9 -10 -10 -11 -12 -12 -13 -14 -14 -15 -16 -17 -18 -19 -19 -20 -21 -22 -22 -22 -22 -22 -22 -23 -24 -25 -25 -26

GFSNGP_925_temp_123.txt.gz
Temp
13 13 13 13 13 13 12 13 12 14 13 14 10 9 9 6 4 3 2 1 1 1 -0 -1 -2 -2 -3 -3 -3 -3 -4 -4 -5 -5 -5 -5 -5 -5 -5 -6 -5 -5 -5 -5
12 11 12 11 12 12 12 13 13 13 12 12 11 9 5 4 4 3 2 1 1 0 -1 -1 -1 -2 -3 -3 -3 -4 -4 -5 -5 -5 -6 -6 -6 -6 -6 -6 -6 -6 -6 -6
11 11 10 10 11 12 12 12 12 11 13 9 7 6 5 4 4 3 2 1 0 -1 -1 -2 -2 -2 -3 -3 -3 -4 -4 -5 -5 -6 -6 -7 -7 -7 -7 -7 -7 -7 -7 -7
10 10 10 13 10 11 11 12 12 11 9 9 8 6 5 4 3 2 1 0 -1 -2 -2 -3 -3 -3 -3 -3 -4 -4 -5 -6 -6 -7 -7 -7 -7 -8 -8 -7 -8 -8 -8 -7
9 10 11 12 10 9 9 11 9 10 7 4 3 3 1 2 2 1 0 -1 -2 -3 -4 -4 -4 -4 -4 -4 -5 -5 -6 -6 -7 -7 -8 -8 -8 -8 -8 -8 -8 -8 -9 -9
8 9 10 10 9 9 9 10 8 8 5 3 4 5 4 1 -1 -2 -2 -3 -4 -5 -5 -4 -4 -4 -5 -5 -5 -6 -6 -6 -7 -7 -8 -8 -8 -8 -8 -8 -9 -9 -9 -10
8 8 9 9 9 9 9 10 6 6 4 3 5 4 1 -1 -2 -3 -4 -4 -5 -5 -5 -5 -5 -4 -5 -6 -6 -6 -6 -6 -7 -7 -8 -8 -8 -8 -8 -9 -9 -9 -9 -10
8 9 9 8 8 9 7 2 4 3 3 1 -1 -2 -3 -3 -3 -4 -4 -5 -5 -5 -6 -5 -5 -5 -6 -6 -6 -6 -6 -7 -7 -8 -8 -8 -9 -9 -9 -9 -9 -9 -9 -10
9 9 4 4 4 3 3 3 2 3 1 0 -1 -2 -3 -3 -4 -5 -5 -5 -5 -5 -5 -5 -5 -5 -5 -5 -5 -6 -6 -7 -7 -8 -8 -8 -8 -8 -8 -9 -9 -9 -9 -10
7 5 4 3 2 3 2 2 0 1 1 -0 -2 -2 -3 -4 -5 -6 -5 -5 -5 -5 -5 -6 -6 -6 -6 -6 -5 -6 -6 -7 -7 -7 -8 -8 -8 -8 -8 -8 -9 -9 -10 -10
5 3 3 3 3 3 0 -0 0 0 -0 -1 -3 -4 -4 -5 -5 -6 -6 -6 -6 -6 -6 -7 -7 -7 -7 -6 -6 -6 -7 -7 -7 -8 -8 -9 -9 -9 -9 -9 -9 -9 -10 -10
9 7 7 5 3 1 -0 -1 -1 -1 -2 -2 -3 -4 -4 -5 -6 -6 -7 -7 -7 -7 -7 -7 -7 -8 -7 -7 -7 -7 -7 -8 -8 -9 -9 -9 -9 -10 -11 -10 -10 -10 -10 -10
6 4 2 2 1 1 -1 -2 -1 -1 -2 -3 -3 -4 -5 -6 -6 -7 -8 -9 -8 -8 -8 -8 -7 -7 -7 -8 -8 -8 -8 -9 -9 -10 -10 -10 -11 -11 -11 -12 -12 -12 -12 -11
2 2 0 1 0 -0 -1 -2 -2 -3 -3 -3 -4 -4 -5 -6 -7 -7 -8 -9 -9 -8 -8 -8 -8 -8 -8 -8 -8 -9 -9 -10 -11 -11 -11 -11 -12 -12 -12 -12 -12 -12 -13 -13
2 2 2 1 -0 -1 -2 -2 -2 -3 -3 -4 -4 -5 -5 -6 -7 -8 -9 -9 -9 -9 -9 -8 -8 -9 -9 -9 -9 -10 -10 -11 -11 -11 -12 -12 -12 -12 -12 -12 -12 -12 -12 -13
1 1 1 0 -1 -2 -2 -2 -2 -3 -3 -4 -4 -5 -6 -7 -8 -8 -8 -9 -9 -9 -9 -9 -9 -9 -10 -9 -10 -10 -11 -11 -11 -11 -12 -12 -12 -12 -12 -13 -13 -13 -13 -15
0 -0 -0 -0 -1 -1 -1 -1 -2 -2 -3 -4 -5 -6 -7 -7 -8 -9 -10 -10 -9 -9 -9 -9 -9 -10 -10 -10 -10 -11 -11 -11 -12 -12 -12 -13 -13 -14 -14 -14 -14 -14 -15 -17
2 2 1 0 -1 -1 -2 -2 -2 -3 -4 -5 -6 -8 -9 -9 -9 -11 -10 -10 -10 -10 -10 -10 -10 -10 -10 -10 -11 -11 -12 -12 -12 -13 -14 -14 -14 -15 -15 -16 -16 -16 -16 -17
1 1 0 -0 -1 -1 -2 -2 -3 -4 -6 -8 -8 -9 -9 -10 -11 -11 -11 -11 -11 -11 -11 -10 -10 -10 -11 -11 -11 -11 -12 -13 -14 -14 -15 -16 -17 -17 -17 -17 -18 -18 -18 -18
-1 -1 -1 -1 -2 -2 -3 -4 -6 -7 -8 -8 -9 -10 -11 -11 -11 -11 -11 -11 -11 -10 -10 -11 -11 -11 -11 -11 -11 -12 -13 -14 -15 -16 -17 -17 -18 -19 -19 -19 -20 -20 -20 -20
-2 -3 -3 -3 -4 -4 -5 -6 -7 -8 -9 -9 -9 -10 -11 -11 -11 -11 -11 -10 -11 -10 -10 -11 -11 -11 -12 -12 -12 -13 -14 -15 -15 -17 -18 -19 -19 -20 -20 -21 -21 -22 -22 -22
-5 -5 -5 -5 -5 -6 -6 -6 -7 -8 -9 -9 -10 -10 -11 -12 -11 -11 -10 -10 -11 -11 -11 -11 -11 -12 -12 -13 -13 -14 -15 -16 -17 -18 -19 -20 -20 -21 -21 -21 -21 -23 -23 -23
-6 -5 -6 -6 -6 -6 -7 -7 -8 -8 -9 -9 -10 -10 -11 -11 -11 -10 -10 -11 -11 -11 -11 -11 -12 -12 -13 -13 -14 -15 -16 -16 -17 -18 -19 -20 -20 -21 -21 -22 -23 -23 -24 -25
-6 -6 -6 -6 -6 -7 -7 -8 -8 -8 -8 -9 -9 -9 -10 -11 -11 -10 -10 -10 -10 -11 -11 -12 -12 -13 -13 -14 -15 -16 -17 -17 -18 -19 -20 -21 -21 -21 -21 -22 -23 -23 -24 -24
-6 -6 -7 -7 -6 -6 -7 -8 -8 -9 -9 -10 -10 -10 -9 -10 -9 -10 -9 -10 -10 -11 -12 -12 -13 -13 -14 -15 -16 -16 -17 -18 -19 -20 -20 -21 -21 -21 -22 -22 -23 -24 -24 -24
-5 -5 -5 -5 -5 -7 -7 -8 -8 -8 -9 -9 -10 -10 -10 -9 -8 -9 -9 -10 -11 -11 -12 -13 -13 -14 -15 -16 -16 -17 -18 -19 -20 -20 -21 -21 -21 -21 -22 -23 -23 -24 -24 -24
-6 -6 -6 -6 -7 -7 -8 -8 -8 -9 -9 -9 -10 -10 -9 -9 -9 -9 -10 -11 -11 -12 -12 -13 -14 -15 -15 -16 -17 -18 -19 -20 -20 -21 -21 -21 -21 -21 -22 -23 -23 -23 -24 -24

GFSNGP_925_temp_129.txt.gz
Temp
18 19 14 14 14 16 16 17 13 17 17 19 20 20 18 18 15 12 10 11 11 9 7 4 3 3 3 3 2 2 2 1 0 0 -0 -1 -1 -1 -1 -1 -1 -2 -1 -1
14 15 18 17 18 18 18 18 17 18 18 20 21 21 21 18 14 12 11 10 10 9 6 4 3 3 2 3 2 1 1 0 -0 -1 -1 -2 -2 -2 -2 -2 -3 -3 -2 -3
13 16 16 14 17 18 18 19 19 18 19 21 21 21 19 18 15 12 11 10 9 7 5 4 3 2 2 2 2 1 0 -0 -1 -2 -3 -3 -3 -3 -4 -4 -4 -5 -5 -4
11 13 11 16 18 19 18 19 20 20 20 21 21 20 19 19 15 11 10 8 6 4 3 2 1 2 2 2 1 0 -1 -2 -3 -3 -3 -4 -4 -5 -5 -5 -5 -6 -6 -6
10 13 15 17 18 15 16 16 18 18 19 20 20 17 13 14 13 11 8 5 2 2 2 1 -0 -0 1 1 1 -1 -2 -4 -4 -5 -5 -5 -5 -5 -5 -5 -5 -6 -6 -7
12 11 11 15 18 18 17 13 17 18 18 18 15 13 14 11 9 6 3 1 0 -0 -1 -1 -1 -1 -0 -0 -1 -3 -3 -3 -4 -5 -6 -6 -6 -6 -6 -6 -6 -5 -6 -7
11 11 13 16 17 17 12 15 16 17 17 16 13 10 10 5 2 1 1 -0 -1 -2 -2 -3 -2 -2 -2 -2 -3 -3 -4 -4 -5 -4 -5 -5 -5 -6 -6 -6 -5 -5 -5 -6
12 11 10 17 16 13 14 13 14 13 14 12 6 5 2 1 0 -0 -1 -1 -2 -2 -2 -2 -2 -2 -3 -4 -4 -4 -4 -5 -5 -5 -5 -5 -5 -5 -5 -5 -5 -5 -5 -5
13 13 11 14 14 14 12 13 12 12 11 7 4 2 1 0 -0 -1 -1 -1 -1 -1 0 1 0 -0 -1 -3 -4 -4 -5 -6 -5 -5 -5 -4 -5 -5 -4 -5 -5 -5 -5 -6
12 14 14 13 14 12 12 12 11 11 10 6 2 1 0 -0 -1 -1 -1 -1 0 1 2 2 1 1 -0 -1 -1 -1 -2 -3 -4 -4 -4 -4 -4 -5 -6 -6 -6 -6 -6 -7
13 14 12 13 13 13 11 10 10 9 8 3 2 1 0 -0 -1 -1 -1 0 1 1 1 1 1 0 -0 -0 -0 -1 -2 -2 -3 -3 -4 -6 -8 -7 -7 -9 -9 -8 -8 -8
12 12 11 12 13 12 10 9 9 9 6 4 3 1 1 -0 -1 -1 -1 1 1 1 0 0 -0 -1 -1 -1 -1 -1 -2 -2 -3 -3 -4 -3 -4 -8 -9 -10 -10 -10 -11 -10
11 10 9 10 11 11 9 9 8 8 6 4 2 2 1 -0 -1 -1 -1 -1 -1 -1 -1 -1 -2 -2 -2 -2 -2 -1 -2 -4 -5 -4 -4 -5 -5 -5 -6 -10 -10 -11 -11 -11
10 9 8 9 8 9 8 8 7 6 5 4 3 2 1 0 -1 -1 -2 -2 -3 -4 -5 -6 -6 -7 -7 -6 -6 -6 -6 -6 -5 -6 -6 -6 -7 -7 -7 -7 -7 -8 -10 -11
9 9 9 9 8 7 7 6 6 5 4 3 3 2 1 0 -0 -1 -2 -3 -4 -5 -6 -7 -8 -8 -8 -8 -7 -7 -7 -7 -7 -7 -7 -7 -7 -7 -7 -7 -7 -7 -8 -10
8 9 8 7 7 6 5 5 5 4 3 3 2 1 1 1 0 -1 -2 -3 -3 -5 -6 -8 -8 -9 -9 -8 -8 -8 -8 -8 -7 -7 -7 -7 -7 -7 -7 -8 -8 -8 -9 -12
7 7 7 6 5 5 5 5 5 3 3 2 2 1 1 0 -1 -2 -3 -3 -5 -6 -8 -8 -10 -9 -9 -8 -6 -6 -7 -8 -8 -7 -7 -8 -8 -8 -9 -9 -9 -9 -10 -14
7 7 7 6 5 5 4 4 3 2 2 1 1 -0 -1 -2 -2 -4 -5 -6 -7 -8 -7 -9 -9 -9 -9 -8 -6 -6 -7 -7 -8 -8 -9 -9 -9 -9 -10 -10 -11 -11 -11 -12
7 7 6 6 5 4 4 3 2 1 -0 -2 -3 -3 -3 -3 -5 -6 -7 -8 -7 -7 -9 -10 -10 -9 -9 -9 -7 -7 -8 -8 -8 -9 -10 -11 -11 -11 -12 -12 -12 -12 -12 -13
5 4 4 4 3 2 2 0 -1 -2 -4 -4 -5 -5 -6 -6 -7 -8 -8 -7 -6 -6 -9 -9 -8 -8 -9 -9 -8 -8 -9 -9 -9 -10 -11 -11 -11 -12 -12 -14 -14 -13 -13 -14
2 2 0 -0 -1 -1 -1 -2 -3 -4 -5 -5 -6 -6 -7 -8 -8 -8 -7 -6 -8 -8 -8 -9 -8 -8 -9 -9 -9 -9 -10 -10 -10 -11 -12 -12 -12 -13 -13 -13 -14 -14 -15 -15
-1 -1 -1 -1 -1 -2 -3 -3 -4 -5 -5 -6 -6 -8 -9 -9 -8 -7 -5 -5 -8 -8 -9 -8 -8 -8 -9 -10 -9 -10 -11 -11 -12 -12 -12 -12 -13 -13 -14 -14 -15 -15 -16 -16
-1 -1 -2 -2 -2 -2 -3 -4 -4 -5 -5 -6 -7 -8 -8 -8 -7 -6 -6 -8 -8 -9 -8 -8 -9 -10 -11 -10 -11 -11 -12 -12 -12 -13 -13 -14 -14 -15 -15 -16 -16 -17 -17 -18
-1 -2 -2 -2 -3 -3 -3 -4 -4 -5 -5 -7 -8 -8 -8 -8 -7 -6 -6 -8 -9 -9 -8 -10 -10 -11 -11 -11 -12 -12 -13 -13 -14 -14 -15 -15 -16 -17 -17 -18 -18 -18 -19 -19
-1 -2 -3 -3 -2 -2 -2 -4 -4 -5 -6 -6 -7 -7 -8 -7 -6 -6 -7 -8 -9 -8 -11 -11 -11 -12 -11 -12 -13 -13 -13 -14 -14 -15 -16 -16 -17 -18 -17 -18 -20 -19 -20 -20
-0 -0 -1 -0 0 -1 -2 -3 -3 -4 -4 -6 -6 -7 -7 -7 -6 -7 -8 -9 -9 -9 -11 -13 -13 -12 -12 -12 -13 -14 -14 -16 -16 -17 -17 -17 -18 -18 -19 -20 -20 -20 -21 -21
0 0 -0 -1 -1 -1 -2 -2 -2 -3 -4 -5 -6 -7 -7 -7 -7 -7 -8 -9 -9 -10 -12 -12 -13 -12 -12 -13 -14 -15 -15 -16 -17 -17 -18 -18 -19 -18 -20 -20 -21 -21 -22 -22

GFSNGP_925_temp_132.txt.gz
Temp
18 18 18 16 16 15 15 14 14 16 17 19 20 17 16 16 17 14 13 12 12 12 9 6 5 4 4 3 3 3 2 1 1 1 -0 -1 -1 -1 -2 -2 -3 -2 -3 -4
14 16 16 15 12 14 15 15 15 16 18 20 20 20 16 16 17 14 13 13 12 11 8 6 5 4 4 4 3 2 2 1 0 -1 -1 -2 -2 -3 -3 -4 -5 -5 -4 -5
12 14 14 13 14 15 17 18 18 17 19 21 20 20 20 16 17 14 13 12 11 10 8 6 5 4 3 3 3 2 1 -0 -1 -2 -3 -4 -4 -4 -5 -5 -6 -6 -6 -6
11 13 11 15 17 17 17 18 19 19 19 20 20 19 17 18 15 13 13 11 10 7 5 4 3 3 3 3 2 0 -1 -2 -2 -3 -3 -4 -5 -5 -5 -5 -6 -6 -7 -7
10 11 13 15 17 16 16 16 17 17 18 19 19 19 13 15 14 13 11 8 5 4 1 0 1 2 3 2 1 -1 -3 -4 -4 -5 -5 -5 -5 -5 -5 -5 -5 -6 -7 -7
10 10 10 14 17 18 16 11 15 17 17 17 17 15 13 10 8 5 4 3 1 1 -0 -0 -1 1 2 1 -0 -1 -3 -4 -5 -5 -5 -5 -5 -5 -5 -5 -5 -5 -7 -7
11 10 12 15 16 17 13 13 15 16 14 15 13 9 6 4 3 2 2 0 -0 -1 -1 -1 -1 0 -0 -2 -3 -3 -3 -3 -4 -5 -5 -5 -5 -5 -5 -5 -5 -5 -6 -8
11 10 10 14 15 14 13 15 14 14 13 8 5 3 2 1 1 1 0 -0 -1 -2 -2 -2 -2 -2 -3 -3 -3 -3 -4 -5 -5 -4 -5 -5 -5 -5 -5 -5 -5 -5 -6 -7
10 11 12 13 13 13 14 13 14 13 10 7 3 2 1 1 0 -0 -0 -1 -2 -2 -2 -1 -1 -1 -3 -3 -4 -4 -5 -5 -5 -5 -4 -5 -5 -5 -5 -5 -5 -6 -7 -8
12 14 14 15 15 15 13 13 13 13 8 5 2 1 1 0 -0 -1 -1 -1 -1 -0 1 1 0 -0 -2 -2 -3 -4 -4 -4 -4 -4 -4 -4 -6 -7 -8 -8 -7 -8 -8 -9
11 11 13 15 15 15 13 13 12 11 6 3 2 1 1 0 -0 -1 -1 -0 0 1 2 2 2 1 -0 -1 -1 -1 -2 -3 -4 -5 -6 -7 -7 -8 -9 -9 -9 -10 -10 -10
11 13 12 11 10 8 13 11 11 9 5 3 2 1 1 0 -0 -0 -1 0 1 2 2 2 1 1 1 1 -0 -1 -2 -2 -2 -3 -5 -6 -8 -9 -9 -9 -10 -10 -10 -10
10 11 10 11 10 13 12 10 10 9 6 4 2 2 0 -0 -0 -0 -0 0 1 1 1 1 -0 -1 -0 -0 -0 -1 -2 -3 -3 -3 -4 -4 -5 -8 -9 -10 -10 -10 -10 -10
11 11 10 10 10 11 11 10 9 8 6 4 3 1 -0 -0 -1 -0 -1 -1 -2 -3 -4 -3 -3 -4 -3 -2 -2 -3 -3 -4 -4 -5 -6 -6 -6 -7 -7 -7 -10 -10 -10 -10
11 11 10 11 10 9 10 9 8 6 4 4 2 1 -0 -1 -1 -1 -2 -3 -4 -5 -5 -5 -5 -6 -5 -5 -4 -5 -6 -6 -6 -7 -7 -7 -6 -7 -7 -7 -7 -8 -10 -10
10 10 10 9 9 8 8 7 6 4 4 3 1 1 0 -0 -1 -2 -3 -3 -4 -5 -7 -7 -7 -7 -7 -7 -7 -7 -7 -7 -7 -7 -7 -7 -7 -7 -7 -8 -8 -9 -11 -12
8 8 8 8 7 6 6 6 5 4 3 2 2 1 0 -0 -1 -2 -3 -4 -4 -6 -7 -8 -8 -8 -7 -7 -7 -7 -8 -7 -7 -7 -7 -7 -8 -8 -8 -9 -9 -10 -12 -12
9 8 8 8 6 5 5 5 4 3 2 2 1 1 0 -1 -2 -3 -4 -6 -7 -8 -8 -8 -8 -8 -7 -6 -6 -7 -7 -7 -7 -8 -8 -8 -9 -9 -10 -10 -10 -11 -11 -12
8 7 7 6 5 5 4 3 2 2 1 0 -1 -1 -2 -2 -4 -6 -7 -7 -7 -8 -9 -9 -8 -8 -7 -6 -6 -6 -7 -7 -8 -9 -10 -10 -10 -11 -11 -11 -11 -12 -12 -13
5 5 5 3 3 2 0 -0 -1 -2 -3 -3 -3 -4 -5 -5 -6 -7 -7 -7 -7 -7 -9 -9 -9 -8 -8 -7 -7 -7 -8 -8 -9 -10 -10 -10 -11 -12 -13 -13 -13 -13 -13 -14
2 0 -0 -0 -1 -1 -1 -2 -4 -4 -4 -4 -5 -5 -6 -6 -7 -7 -7 -6 -8 -7 -9 -8 -8 -8 -9 -8 -8 -8 -9 -9 -10 -11 -11 -12 -12 -12 -12 -13 -13 -14 -14 -15
0 0 -0 -1 -1 -2 -2 -3 -4 -5 -5 -5 -6 -7 -7 -7 -7 -7 -6 -7 -8 -8 -8 -8 -7 -8 -9 -9 -9 -9 -10 -10 -11 -11 -11 -12 -12 -12 -13 -14 -14 -15 -15 -16
-1 -1 -1 -2 -2 -2 -3 -3 -4 -4 -5 -6 -7 -8 -7 -8 -7 -7 -6 -8 -8 -8 -8 -7 -8 -8 -9 -9 -10 -10 -11 -11 -11 -12 -12 -13 -13 -14 -14 -15 -15 -16 -16 -17
-1 -1 -2 -2 -3 -3 -3 -4 -4 -5 -5 -7 -7 -8 -8 -8 -7 -7 -7 -8 -8 -8 -8 -8 -8 -9 -10 -10 -11 -11 -12 -12 -12 -13 -13 -14 -15 -15 -16 -16 -17 -17 -18 -18
-1 -2 -2 -2 -2 -2 -3 -4 -4 -5 -6 -6 -7 -7 -7 -7 -7 -7 -8 -8 -8 -9 -9 -9 -9 -10 -11 -11 -11 -12 -12 -13 -13 -14 -14 -15 -15 -16 -16 -17 -18 -18 -19 -19
-1 -1 -2 -1 -0 -2 -3 -4 -4 -5 -5 -6 -7 -7 -7 -7 -7 -7 -8 -8 -9 -10 -10 -10 -11 -11 -11 -11 -12 -13 -13 -13 -14 -14 -15 -15 -16 -17 -17 -18 -19 -19 -19 -20
0 0 -0 -0 -1 -1 -2 -3 -3 -4 -4 -5 -6 -7 -6 -7 -7 -8 -8 -9 -9 -10 -11 -12 -11 -11 -11 -12 -13 -13 -14 -14 -16 -16 -16 -17 -17 -17 -18 -19 -19 -20 -20 -21

GFSNGP_925_temp_135.txt.gz
Temp
15 15 16 14 16 17 15 15 13 15 14 16 17 15 15 13 12 11 10 11 10 7 5 4 4 3 3 3 3 2 2 1 -0 -1 -1 -2 -2 -3 -3 -4 -5 -6 -6 -7
10 14 15 13 14 15 14 15 14 13 13 15 16 17 15 15 14 12 10 11 11 8 5 5 4 3 3 3 3 2 1 -1 -1 -2 -2 -3 -4 -4 -5 -5 -6 -6 -7 -8
10 12 12 12 13 14 14 15 15 14 14 15 16 17 17 16 15 12 11 11 10 6 5 4 4 4 4 3 2 1 -0 -2 -2 -3 -4 -4 -4 -5 -6 -6 -6 -7 -7 -8
10 10 9 13 15 15 15 15 15 16 17 16 17 15 13 15 13 12 11 11 9 6 4 4 4 4 3 2 1 -0 -2 -3 -3 -4 -5 -5 -5 -5 -6 -6 -7 -7 -8 -8
7 9 11 13 13 14 13 13 14 13 14 15 15 13 10 10 12 11 10 7 5 4 3 3 3 3 2 1 -1 -2 -3 -4 -4 -5 -5 -5 -5 -5 -6 -6 -7 -8 -8 -8
6 8 10 11 14 16 14 11 12 13 13 13 12 10 7 5 7 4 4 3 1 1 1 1 2 2 1 -1 -2 -3 -4 -5 -5 -5 -5 -5 -5 -5 -5 -6 -7 -8 -9 -9
8 9 9 10 13 14 11 9 14 13 12 11 7 6 4 2 2 2 1 1 0 0 -0 -0 1 0 -2 -2 -3 -3 -4 -5 -5 -5 -5 -5 -5 -5 -5 -5 -7 -8 -9 -10
9 9 8 13 14 13 10 12 13 12 7 5 3 2 2 1 1 1 0 -0 -1 -1 -1 -1 -1 -1 -2 -3 -3 -3 -4 -5 -5 -5 -5 -5 -5 -5 -5 -5 -7 -9 -9 -10
9 8 9 11 11 10 10 11 12 8 5 3 2 2 1 1 0 -0 -1 -1 -1 -1 -2 -2 -3 -2 -3 -3 -4 -4 -5 -5 -5 -5 -5 -5 -5 -5 -6 -6 -7 -9 -10 -10
9 10 10 11 11 11 11 11 10 7 3 2 2 1 1 0 -0 -1 -1 -1 -1 -2 -2 -2 -2 -2 -3 -4 -4 -5 -5 -5 -4 -5 -6 -6 -6 -7 -7 -8 -9 -9 -10 -11
7 8 10 10 11 8 8 10 7 5 3 2 1 1 0 -0 -1 -1 -1 -1 -1 -1 -1 -1 -1 -2 -3 -4 -4 -4 -5 -5 -5 -5 -6 -7 -7 -7 -8 -9 -9 -10 -10 -10
7 9 9 9 8 8 9 8 5 3 2 2 2 0 0 -0 -1 -1 -1 -1 -1 -0 -0 -0 -1 -2 -2 -3 -3 -3 -4 -4 -4 -5 -6 -7 -9 -10 -9 -9 -10 -10 -10 -10
7 9 8 9 8 9 7 7 5 3 2 1 1 1 0 -1 -1 -1 -1 -1 0 0 1 0 -1 -1 -1 -1 -1 -2 -3 -4 -5 -5 -7 -8 -9 -9 -10 -10 -10 -10 -10 -10
10 9 9 9 7 9 9 8 5 4 3 1 1 0 -0 -1 -1 -1 -1 -2 -1 -1 -1 -1 -1 -1 -0 -1 -1 -2 -3 -3 -4 -5 -6 -7 -7 -8 -8 -10 -10 -10 -10 -11
9 9 9 9 8 8 7 6 5 4 2 2 1 -0 -1 -1 -1 -1 -3 -3 -3 -3 -4 -3 -2 -4 -2 -1 -2 -3 -4 -5 -5 -6 -6 -6 -7 -7 -7 -8 -10 -11 -10 -10
9 9 9 8 7 7 6 4 3 3 2 1 -0 -1 -2 -2 -2 -3 -4 -4 -4 -6 -5 -3 -4 -5 -4 -3 -4 -5 -5 -6 -6 -6 -7 -7 -7 -7 -7 -8 -10 -11 -11 -11
7 7 7 6 5 5 5 4 3 3 1 -0 -1 -1 -1 -2 -3 -4 -4 -5 -5 -6 -5 -5 -6 -6 -5 -5 -5 -6 -6 -7 -7 -7 -7 -7 -8 -8 -8 -9 -10 -11 -12 -12
6 6 6 5 3 3 3 2 1 1 1 0 -0 -1 -2 -3 -4 -5 -5 -6 -7 -7 -7 -7 -6 -6 -6 -6 -6 -7 -7 -7 -7 -7 -8 -8 -9 -9 -10 -10 -11 -12 -13 -13
6 5 4 3 3 1 0 -0 0 1 1 0 -1 -2 -3 -4 -5 -6 -7 -7 -8 -9 -8 -7 -7 -7 -7 -7 -7 -7 -7 -7 -8 -8 -9 -9 -10 -10 -11 -11 -11 -12 -13 -13
1 1 1 0 1 0 -2 -2 -1 -2 -1 -1 -3 -5 -5 -6 -6 -7 -7 -7 -8 -8 -8 -8 -7 -7 -7 -6 -6 -7 -7 -8 -9 -9 -10 -10 -11 -11 -12 -12 -12 -13 -14 -14
-1 -2 -2 -2 -2 -2 -2 -2 -3 -4 -4 -3 -5 -5 -6 -7 -7 -7 -7 -7 -7 -7 -8 -8 -8 -7 -7 -7 -7 -8 -8 -9 -9 -10 -10 -11 -12 -12 -12 -13 -13 -14 -14 -15
-2 -3 -5 -3 -2 -3 -3 -3 -4 -4 -5 -5 -6 -6 -7 -7 -7 -7 -7 -7 -8 -8 -8 -8 -8 -8 -8 -8 -8 -8 -9 -9 -10 -11 -11 -11 -12 -12 -13 -13 -14 -14 -15 -16
-0 -0 -2 -2 -2 -3 -4 -4 -4 -4 -5 -6 -6 -7 -7 -7 -7 -7 -7 -8 -8 -8 -8 -8 -8 -8 -8 -9 -9 -9 -10 -10 -11 -11 -12 -12 -12 -13 -13 -14 -15 -15 -16 -16
-1 -1 -2 -2 -3 -3 -4 -5 -5 -5 -5 -6 -6 -6 -7 -8 -7 -7 -7 -7 -8 -8 -8 -7 -8 -8 -9 -9 -9 -10 -10 -11 -11 -12 -12 -12 -13 -13 -14 -15 -15 -16 -17 -17
-2 -2 -3 -3 -3 -3 -4 -4 -5 -6 -7 -7 -7 -7 -7 -7 -7 -7 -7 -8 -8 -8 -8 -8 -8 -9 -9 -10 -10 -11 -11 -12 -12 -12 -13 -14 -14 -15 -15 -16 -16 -17 -18 -18
-2 -2 -2 -2 -2 -3 -4 -4 -5 -6 -6 -7 -8 -8 -8 -7 -7 -7 -8 -8 -9 -8 -8 -9 -9 -10 -10 -11 -11 -12 -12 -13 -13 -13 -14 -15 -15 -15 -16 -17 -17 -18 -18 -19
-2 -2 -2 -1 -2 -3 -3 -4 -5 -5 -6 -7 -7 -7 -7 -7 -7 -8 -8 -9 -9 -9 -9 -9 -10 -10 -11 -11 -12 -12 -13 -13 -13 -14 -14 -15 -15 -16 -17 -17 -18 -18 -19 -19

GFSNGP_925_temp_138.txt.gz
Temp
9 9 11 13 14 15 16 15 14 16 15 15 14 13 12 11 10 9 9 9 8 6 5 3 2 2 3 3 2 2 1 -0 -1 -2 -2 -2 -3 -4 -4 -5 -6 -6 -6 -6
9 8 9 9 9 11 10 11 11 12 12 14 15 14 13 12 11 10 10 9 9 7 5 3 3 2 2 3 2 2 0 -1 -2 -2 -3 -4 -4 -5 -5 -6 -6 -7 -7 -7
9 9 9 9 11 12 12 12 11 10 13 15 15 14 14 13 13 12 11 10 10 7 5 4 3 2 2 2 1 0 -1 -2 -2 -3 -4 -4 -5 -6 -6 -7 -7 -7 -7 -8
9 9 8 12 13 13 13 13 14 15 15 14 15 14 13 13 13 13 13 11 10 6 5 3 2 2 2 1 0 -1 -2 -3 -3 -4 -5 -5 -6 -6 -7 -7 -8 -8 -8 -8
8 9 11 12 14 11 10 11 13 13 14 14 14 13 13 8 10 11 11 9 6 5 4 2 2 1 0 -1 -1 -2 -3 -4 -4 -4 -5 -5 -6 -7 -7 -8 -8 -8 -8 -8
8 7 8 10 12 13 12 8 12 12 12 13 11 9 10 4 5 5 5 5 4 3 2 2 1 1 -0 -2 -3 -3 -3 -4 -4 -5 -5 -5 -6 -7 -7 -8 -9 -9 -9 -9
7 8 8 10 12 13 10 10 12 13 12 12 9 6 4 2 1 2 3 2 2 2 1 1 0 -0 -2 -3 -3 -3 -4 -5 -5 -5 -5 -5 -6 -6 -7 -8 -9 -9 -10 -10
7 7 6 11 13 12 9 11 12 10 7 4 3 2 1 1 1 1 1 1 1 0 -0 -0 -1 -1 -3 -3 -3 -4 -4 -5 -5 -5 -5 -5 -5 -6 -7 -9 -9 -10 -10 -10
7 6 8 10 11 11 10 10 11 8 4 3 2 2 1 1 1 1 0 0 0 -0 -1 -1 -2 -1 -3 -4 -4 -4 -5 -5 -5 -5 -5 -6 -5 -6 -7 -8 -10 -10 -10 -10
9 9 9 9 9 9 10 9 9 5 4 3 2 1 1 0 -0 -0 -1 -0 -1 -1 -2 -3 -3 -3 -3 -4 -4 -4 -5 -5 -5 -6 -6 -6 -6 -7 -7 -9 -10 -10 -10 -10
5 7 8 9 9 8 9 7 5 4 3 2 2 1 1 -0 -0 -1 -1 -1 -1 -1 -2 -3 -3 -4 -4 -4 -4 -5 -5 -5 -6 -6 -6 -7 -7 -7 -8 -8 -9 -10 -10 -10
5 7 7 8 8 7 7 6 5 3 2 2 2 1 0 -0 -1 -1 -1 -1 -1 -2 -2 -3 -4 -4 -4 -4 -4 -5 -5 -6 -6 -6 -7 -8 -9 -9 -9 -9 -10 -10 -10 -10
7 8 7 8 8 9 8 5 3 3 2 2 1 1 0 -1 -1 -1 -1 -2 -2 -2 -2 -2 -3 -4 -4 -4 -4 -5 -5 -6 -7 -7 -8 -9 -9 -10 -10 -9 -10 -10 -10 -9
7 8 8 8 7 9 7 5 4 2 1 1 0 0 -0 -1 -1 -1 -1 -1 -2 -2 -2 -2 -2 -3 -3 -3 -4 -4 -5 -5 -6 -7 -7 -8 -9 -9 -9 -10 -10 -11 -11 -10
7 7 7 8 7 5 4 3 2 1 0 0 -0 -1 -1 -1 -1 -1 -2 -3 -3 -4 -4 -3 -2 -2 -2 -3 -3 -4 -4 -4 -5 -6 -6 -7 -7 -8 -9 -10 -11 -11 -11 -11
7 7 7 6 5 4 3 2 1 0 0 -0 -0 -1 -1 -1 -2 -3 -4 -4 -5 -5 -5 -3 -2 -3 -3 -2 -3 -3 -4 -4 -5 -6 -7 -7 -7 -8 -9 -10 -11 -11 -11 -11
6 6 5 5 4 3 3 1 1 1 0 -0 -1 -2 -2 -3 -4 -4 -5 -4 -5 -5 -4 -2 -3 -4 -3 -3 -3 -4 -5 -5 -6 -6 -7 -7 -7 -8 -8 -10 -11 -11 -12 -12
7 6 5 4 3 2 1 1 -0 0 0 -1 -2 -2 -3 -4 -4 -6 -6 -6 -6 -6 -6 -4 -5 -6 -4 -4 -4 -5 -5 -6 -7 -7 -7 -7 -8 -8 -9 -10 -11 -12 -13 -13
4 3 2 2 1 0 -0 -1 -1 -0 -1 -2 -2 -3 -4 -5 -6 -6 -6 -6 -7 -8 -7 -6 -6 -6 -5 -5 -5 -6 -6 -7 -7 -7 -8 -8 -9 -9 -10 -10 -11 -12 -13 -13
0 0 0 -0 0 -0 -2 -1 -1 -2 -2 -2 -4 -5 -6 -6 -6 -6 -6 -7 -7 -7 -7 -7 -7 -7 -7 -7 -6 -7 -7 -7 -8 -8 -9 -9 -9 -10 -11 -11 -12 -12 -13 -14
-2 -2 -3 -3 -4 -3 -2 -1 -2 -3 -3 -3 -4 -6 -6 -7 -6 -7 -7 -7 -7 -7 -7 -8 -7 -7 -7 -7 -7 -7 -7 -8 -8 -9 -9 -10 -10 -11 -12 -12 -12 -13 -14 -14
-6 -5 -5 -4 -5 -5 -4 -3 -3 -4 -4 -5 -5 -6 -7 -7 -7 -7 -6 -7 -7 -8 -8 -8 -8 -7 -7 -7 -7 -7 -7 -8 -8 -9 -10 -10 -11 -12 -12 -13 -13 -14 -14 -15
-2 -3 -3 -3 -3 -5 -5 -4 -4 -4 -5 -5 -6 -7 -7 -7 -7 -7 -8 -7 -7 -8 -8 -8 -8 -7 -7 -7 -7 -8 -8 -9 -9 -10 -10 -11 -11 -12 -12 -13 -13 -14 -15 -15
-1 -0 -3 -3 -3 -4 -5 -6 -5 -5 -5 -5 -5 -6 -6 -7 -7 -7 -6 -7 -7 -8 -8 -8 -8 -8 -8 -8 -8 -8 -9 -9 -10 -10 -11 -11 -12 -12 -13 -13 -14 -15 -15 -16
-2 -2 -3 -3 -3 -3 -4 -5 -6 -7 -7 -7 -7 -7 -6 -6 -6 -7 -6 -7 -7 -8 -8 -8 -8 -8 -8 -8 -9 -9 -9 -10 -11 -11 -12 -12 -12 -13 -13 -14 -15 -15 -16 -17
-2 -3 -3 -2 -3 -4 -4 -5 -6 -7 -7 -8 -8 -7 -7 -7 -7 -7 -7 -7 -8 -8 -8 -8 -8 -8 -8 -9 -9 -10 -10 -11 -11 -12 -12 -13 -13 -14 -14 -15 -15 -16 -17 -17
-2 -2 -3 -3 -3 -4 -4 -4 -6 -6 -7 -7 -8 -8 -8 -8 -7 -7 -8 -8 -8 -8 -8 -8 -8 -9 -9 -9 -10 -11 -11 -12 -12 -12 -13 -13 -14 -14 -15 -16 -16 -17 -17 -18